GW3940 Weather Reports


time (UTC)temp
C
wind
direction
speed
KPH
gust
KPH
rain 1hr
cm
rain 24hr
cm
rain mn
cm
humidity
%
barometer
mb
20260506002554 24 319 9.7 11.3 0.00 0.00 0.00 30 1011.5
20260506002050 23 315 9.7 12.9 0.00 0.00 0.00 31 1011.5
20260506001547 25 313 17.7 20.9 0.00 0.00 0.00 28 1011.2
20260506001044 24 329 17.7 24.1 0.00 0.00 0.00 29 1011.5
20260506000541 24 332 8.0 11.3 0.00 0.00 0.00 28 1011.6
20260506000039 24 316 19.3 22.5 0.00 0.00 0.00 28 1011.6
20260505235537 25 338 8.0 9.7 0.00 0.00 0.00 28 1011.6
20260505235033 25 28 17.7 24.1 0.00 0.00 0.00 27 1011.6
20260505234530 24 337 6.4 6.4 0.00 0.00 0.00 29 1011.5
20260505234027 24 339 16.1 17.7 0.00 0.00 0.00 28 1011.8
20260505233525 24 20 9.7 11.3 0.00 0.00 0.00 29 1011.6
20260505233022 25 345 17.7 22.5 0.00 0.00 0.00 28 1011.5
20260505232520 23 320 14.5 17.7 0.00 0.00 0.00 27 1011.5
20260505232017 24 338 14.5 16.1 0.00 0.00 0.00 29 1011.6
20260505231514 25 285 8.0 9.7 0.00 0.00 0.00 29 1011.5
20260505231013 25 27 4.8 4.8 0.00 0.00 0.00 26 1011.3
20260505230509 25 339 4.8 4.8 0.00 0.00 0.00 29 1011.5
20260505230006 24 338 6.4 11.3 0.00 0.00 0.00 26 1011.7
20260505225503 25 328 16.1 17.7 0.00 0.00 0.00 26 1011.6
20260505224959 25 339 6.4 11.3 0.00 0.00 0.00 25 1011.6
20260505224456 25 347 6.4 9.7 0.00 0.00 0.00 26 1011.5
20260505223953 25 333 6.4 9.7 0.00 0.00 0.00 27 1011.6
20260505223450 25 30 3.2 4.8 0.00 0.00 0.00 24 1011.5
20260505222946 25 2 9.7 11.3 0.00 0.00 0.00 26 1011.6
20260505222442 24 37 6.4 6.4 0.00 0.00 0.00 26 1011.9
20260505221938 24 312 6.4 9.7 0.00 0.00 0.00 26 1011.8
20260505221436 25 319 11.3 16.1 0.00 0.00 0.00 28 1011.8
20260505220933 23 317 1.6 1.6 0.00 0.00 0.00 32 1011.7
20260505220430 24 297 8.0 9.7 0.00 0.00 0.00 34 1011.6
20260505215927 24 329 6.4 9.7 0.00 0.00 0.00 27 1012.0
20260505215425 24 315 6.4 9.7 0.00 0.00 0.00 28 1011.7
20260505214923 24 70 1.6 3.2 0.00 0.00 0.00 26 1011.7
20260505214421 24 12 4.8 9.7 0.00 0.00 0.00 31 1011.8
20260505213917 23 313 9.7 12.9 0.00 0.00 0.00 30 1012.0
20260505213415 25 301 16.1 17.7 0.00 0.00 0.00 31 1011.8
20260505212911 23 341 14.5 16.1 0.00 0.00 0.00 31 1011.9
20260505212408 23 337 19.3 24.1 0.00 0.00 0.00 34 1012.1
20260505211904 23 249 8.0 9.7 0.00 0.00 0.00 33 1012.0
20260505211402 23 289 6.4 6.4 0.00 0.00 0.00 30 1012.0
20260505210858 23 335 12.9 12.9 0.00 0.00 0.00 28 1011.8
20260505210356 23 210 3.2 3.2 0.00 0.00 0.00 28 1012.0
20260505205852 23 129 6.4 6.4 0.00 0.00 0.00 28 1012.0
20260505205351 24 15 6.4 12.9 0.00 0.00 0.00 27 1012.0
20260505204847 23 10 12.9 16.1 0.00 0.00 0.00 30 1011.7
20260505204345 23 269 4.8 4.8 0.00 0.00 0.00 36 1011.9
20260505203842 23 32 3.2 4.8 0.00 0.00 0.00 27 1012.0
20260505203338 23 331 11.3 14.5 0.00 0.00 0.00 30 1012.0
20260505202835 24 89 4.8 4.8 0.00 0.00 0.00 29 1012.0
20260505202331 23 331 6.4 6.4 0.00 0.00 0.00 31 1012.1
20260505201828 22 334 1.6 1.6 0.00 0.00 0.00 32 1012.2
20260505201325 23 348 12.9 14.5 0.00 0.00 0.00 34 1012.2
20260505200823 22 354 6.4 6.4 0.00 0.00 0.00 37 1012.3
20260505200320 22 36 4.8 4.8 0.00 0.00 0.00 30 1012.5
20260505195815 23 343 6.4 9.7 0.00 0.00 0.00 32 1012.6
20260505195313 22 2 14.5 17.7 0.00 0.00 0.00 34 1012.1
20260505194810 22 328 9.7 12.9 0.00 0.00 0.00 33 1012.2
20260505194307 23 340 14.5 16.1 0.00 0.00 0.00 33 1012.2
20260505193802 22 114 3.2 3.2 0.00 0.00 0.00 32 1012.3
20260505193300 22 347 17.7 24.1 0.00 0.00 0.00 35 1012.2
20260505192758 22 327 8.0 9.7 0.00 0.00 0.00 37 1012.3
20260505192256 22 354 8.0 11.3 0.00 0.00 0.00 37 1012.3
20260505191753 22 1 8.0 9.7 0.00 0.00 0.00 35 1012.5
20260505191252 22 75 3.2 3.2 0.00 0.00 0.00 35 1012.5
20260505190748 22 338 9.7 12.9 0.00 0.00 0.00 33 1012.5
20260505190243 21 347 1.6 3.2 0.00 0.00 0.00 36 1012.6
20260505185739 21 339 11.3 14.5 0.00 0.00 0.00 35 1012.5
20260505185236 21 294 11.3 12.9 0.00 0.00 0.00 36 1012.5
20260505184732 21 317 3.2 3.2 0.00 0.00 0.00 41 1012.5
20260505184230 21 314 9.7 11.3 0.00 0.00 0.00 40 1012.3
20260505183726 21 321 12.9 14.5 0.00 0.00 0.00 38 1012.6
20260505183224 21 81 3.2 4.8 0.00 0.00 0.00 37 1012.3
20260505182714 20 327 6.4 11.3 0.00 0.00 0.00 42 1012.6
20260505182212 20 336 6.4 9.7 0.00 0.00 0.00 42 1012.8
20260505181708 20 282 9.7 11.3 0.00 0.00 0.00 44 1012.6
20260505181206 20 269 3.2 3.2 0.00 0.00 0.00 43 1012.7
20260505180702 20 345 8.0 9.7 0.00 0.00 0.00 45 1012.8
20260505180159 20 341 1.6 3.2 0.00 0.00 0.00 43 1012.3
20260505175655 19 175 4.8 4.8 0.00 0.00 0.00 43 1012.6
20260505175151 19 225 4.8 4.8 0.00 0.00 0.00 43 1012.6
20260505174648 18 287 0.0 1.6 0.00 0.00 0.00 44 1012.5
20260505174144 18 301 9.7 11.3 0.00 0.00 0.00 44 1012.9
20260505173641 18 309 8.0 9.7 0.00 0.00 0.00 47 1012.7
20260505173138 18 336 4.8 6.4 0.00 0.00 0.00 49 1012.6
20260505172635 18 253 3.2 3.2 0.00 0.00 0.00 45 1012.7
20260505172131 18 26 0.0 1.6 0.00 0.00 0.00 45 1012.8
20260505171626 17 310 1.6 1.6 0.00 0.00 0.00 49 1012.7
20260505171123 17 291 6.4 6.4 0.00 0.00 0.00 52 1012.7
20260505170615 17 309 4.8 4.8 0.00 0.00 0.00 52 1012.8
20260505170111 16 195 3.2 4.8 0.00 0.00 0.00 51 1012.7
20260505165606 16 238 3.2 4.8 0.00 0.00 0.00 51 1012.8
20260505165103 16 232 3.2 4.8 0.00 0.00 0.00 51 1012.7
20260505164558 16 198 4.8 4.8 0.00 0.00 0.00 52 1013.0
20260505164056 16 348 0.0 0.0 0.00 0.00 0.00 51 1012.9
20260505163555 16 285 1.6 1.6 0.00 0.00 0.00 53 1012.9
20260505163051 16 181 1.6 1.6 0.00 0.00 0.00 53 1012.8
20260505162549 16 53 1.6 1.6 0.00 0.00 0.00 52 1013.0
20260505162046 15 3 3.2 4.8 0.00 0.00 0.00 54 1012.9
20260505161543 15 338 3.2 3.2 0.00 0.00 0.00 57 1012.7
20260505161041 15 250 1.6 1.6 0.00 0.00 0.00 59 1013.1
20260505160538 14 319 0.0 0.0 0.00 0.00 0.00 58 1012.9
20260505153015 12 264 0.0 1.6 0.00 0.00 0.00 66 1012.9
20260505152512 12 246 3.2 3.2 0.00 0.00 0.00 65 1012.8
20260505152007 11 220 3.2 3.2 0.00 0.00 0.00 65 1013.0
20260505151502 11 220 1.6 1.6 0.00 0.00 0.00 66 1012.8
20260505151000 11 256 1.6 1.6 0.00 0.00 0.00 66 1012.8
20260505150456 11 259 0.0 0.0 0.00 0.00 0.00 68 1012.8
20260505140427 8 252 1.6 1.6 0.00 0.00 0.00 71 1012.0
20260505124840 6 269 0.0 0.0 0.00 0.00 0.00 81 1011.6
20260505124337 6 269 0.0 0.0 0.00 0.00 0.00 81 1011.6
20260505123833 6 269 0.0 0.0 0.00 0.00 0.00 80 1011.6
20260505123330 6 268 0.0 1.6 0.00 0.00 0.00 80 1011.2
20260505122826 7 270 0.0 0.0 0.00 0.00 0.00 79 1011.6
20260505122323 7 283 0.0 0.0 0.00 0.00 0.00 79 1011.3
20260505121820 7 280 0.0 0.0 0.00 0.00 0.00 79 1011.3
20260505121317 6 228 3.2 3.2 0.00 0.00 0.00 80 1011.2
20260505120813 6 241 1.6 1.6 0.00 0.00 0.00 80 1011.2
20260505120309 6 238 1.6 1.6 0.00 0.00 0.00 80 1011.1
20260505115808 6 263 0.0 1.6 0.00 0.00 0.00 79 1011.1
20260505115306 6 266 0.0 1.6 0.00 0.00 0.00 79 1011.1
20260505114803 6 266 0.0 1.6 0.00 0.00 0.00 79 1011.1
20260505114259 6 242 1.6 1.6 0.00 0.00 0.00 79 1011.3
20260505113756 6 280 1.6 1.6 0.00 0.00 0.00 79 1011.1
20260505113252 6 257 1.6 1.6 0.00 0.00 0.00 78 1011.3
20260505112748 6 270 0.0 0.0 0.00 0.00 0.00 78 1011.2
20260505112246 7 269 1.6 1.6 0.00 0.00 0.00 77 1011.2
20260505111741 7 259 0.0 1.6 0.00 0.00 0.00 76 1011.0
20260505111237 7 269 1.6 1.6 0.00 0.00 0.00 77 1011.1
20260505110733 7 270 0.0 0.0 0.00 0.00 0.00 76 1011.2
20260505110231 7 254 1.6 1.6 0.00 0.00 0.00 75 1011.0
20260505102207 7 249 0.0 1.6 0.00 0.00 0.00 72 1010.9
20260505101705 7 261 1.6 1.6 0.00 0.00 0.00 71 1010.8
20260505101201 7 243 1.6 1.6 0.00 0.00 0.00 70 1010.9
20260505100657 7 253 0.0 1.6 0.00 0.00 0.00 70 1010.9
20260505100154 7 218 1.6 1.6 0.00 0.00 0.00 69 1010.8
20260505095650 7 234 1.6 1.6 0.00 0.00 0.00 69 1011.2
20260505095148 7 275 0.0 0.0 0.00 0.00 0.00 69 1011.1
20260505094643 7 285 0.0 0.0 0.00 0.00 0.00 70 1011.0
20260505094140 7 245 0.0 1.6 0.00 0.00 0.00 70 1010.9
20260505093636 7 262 1.6 1.6 0.00 0.00 0.00 70 1010.9
20260505093134 7 292 0.0 0.0 0.00 0.00 0.00 70 1010.7
20260505092630 7 311 0.0 0.0 0.00 0.00 0.00 69 1011.0
20260505092130 7 317 0.0 0.0 0.00 0.00 0.00 68 1010.9
20260505091626 7 320 0.0 0.0 0.00 0.00 0.00 68 1010.9
20260505091124 8 320 0.0 0.0 0.00 0.00 0.00 67 1010.9
20260505090621 8 320 0.0 0.0 0.00 0.00 0.00 66 1010.8
20260505090119 8 320 0.0 0.0 0.00 0.00 0.00 66 1011.0
20260505085616 8 319 0.0 0.0 0.00 0.00 0.00 65 1011.1
20260505085115 8 285 0.0 0.0 0.00 0.00 0.00 66 1010.8
20260505084612 8 286 0.0 1.6 0.00 0.00 0.00 67 1010.7
20260505084110 8 332 0.0 0.0 0.00 0.00 0.00 66 1010.9
20260505083608 10 332 0.0 0.0 0.00 0.00 0.00 64 1010.8
20260505083104 10 264 0.0 0.0 0.00 0.00 0.00 64 1011.0
20260505082559 10 212 1.6 1.6 0.00 0.00 0.00 64 1011.1
20260505082057 9 203 1.6 1.6 0.00 0.00 0.00 66 1010.9
20260505081553 9 244 1.6 3.2 0.00 0.00 0.00 66 1010.9
20260505081050 8 282 1.6 1.6 0.00 0.00 0.00 68 1010.9
20260505080546 8 313 0.0 0.0 0.00 0.00 0.00 70 1010.8
20260505080044 9 325 0.0 0.0 0.00 0.00 0.00 70 1011.1
20260505075539 8 262 4.8 4.8 0.00 0.00 0.00 73 1010.8
20260505075036 8 202 4.8 4.8 0.00 0.00 0.00 66 1010.8
20260505074533 8 187 3.2 3.2 0.00 0.00 0.00 67 1011.0
20260505074030 8 316 0.0 0.0 0.00 0.00 0.00 72 1010.7
20260505073528 8 308 0.0 0.0 0.00 0.00 0.00 72 1010.9
20260505073026 8 280 0.0 0.0 0.00 0.00 0.00 69 1010.9
20260505072521 10 280 0.0 0.0 0.00 0.00 0.00 64 1010.9
20260505072018 9 274 0.0 0.0 0.00 0.00 0.00 66 1010.9
20260505071513 9 294 0.0 0.0 0.00 0.00 0.00 65 1010.8
20260505071012 9 295 0.0 1.6 0.00 0.00 0.00 65 1010.9
20260505070509 10 156 0.0 0.0 0.00 0.00 0.00 61 1010.8
20260505070005 11 156 0.0 1.6 0.00 0.00 0.00 58 1010.8
20260505065501 10 208 4.8 4.8 0.00 0.00 0.00 61 1010.7
20260505064957 10 186 0.0 0.0 0.00 0.00 0.00 62 1010.7
20260505064454 10 203 1.6 1.6 0.00 0.00 0.00 61 1010.6
20260505063953 10 203 3.2 3.2 0.00 0.00 0.00 62 1010.3
20260505063449 10 72 0.0 0.0 0.00 0.00 0.00 62 1010.3
20260505062945 10 68 0.0 0.0 0.00 0.00 0.00 61 1010.5
20260505062442 11 68 0.0 0.0 0.00 0.00 0.00 60 1010.5
20260505061939 12 68 0.0 0.0 0.00 0.00 0.00 55 1010.5
20260505061437 12 68 0.0 0.0 0.00 0.00 0.00 55 1010.3
20260505060935 11 328 0.0 0.0 0.00 0.00 0.00 58 1010.2
20260505060432 12 321 0.0 0.0 0.00 0.00 0.00 55 1010.2
20260505055928 12 321 0.0 0.0 0.00 0.00 0.00 56 1010.3
20260505055424 13 5 0.0 0.0 0.00 0.00 0.00 52 1010.3
20260505054921 13 5 0.0 1.6 0.00 0.00 0.00 52 1010.5
20260505054418 13 4 0.0 0.0 0.00 0.00 0.00 52 1010.3
20260505053916 13 325 0.0 0.0 0.00 0.00 0.00 52 1010.5
20260505053413 13 326 0.0 0.0 0.00 0.00 0.00 52 1010.2
20260505052910 13 325 0.0 0.0 0.00 0.00 0.00 51 1010.1
20260505052407 14 336 3.2 4.8 0.00 0.00 0.00 49 1010.2
20260505051904 15 331 3.2 3.2 0.00 0.00 0.00 48 1010.2
20260505051401 15 334 6.4 6.4 0.00 0.00 0.00 46 1010.2
20260505050859 15 348 6.4 6.4 0.00 0.00 0.00 46 1010.3
20260505050357 15 341 6.4 6.4 0.00 0.00 0.00 46 1010.3
20260505041325 17 332 9.7 11.3 0.00 0.00 0.00 41 1009.6
20260505040821 17 333 8.0 11.3 0.00 0.00 0.00 41 1009.6
20260505040319 17 318 9.7 11.3 0.00 0.00 0.00 41 1009.6
20260505035816 17 312 12.9 16.1 0.00 0.00 0.00 41 1009.7
20260505035311 17 307 14.5 22.5 0.00 0.00 0.00 41 1009.1
20260505034809 17 312 14.5 20.9 0.00 0.00 0.00 40 1008.8
20260505034305 18 334 6.4 9.7 0.00 0.00 0.00 40 1009.1
20260505033803 18 344 11.3 12.9 0.00 0.00 0.00 38 1009.2
20260505033259 18 336 14.5 16.1 0.00 0.00 0.00 37 1009.1
20260505032758 18 328 11.3 12.9 0.00 0.00 0.00 36 1008.9
20260505032253 18 323 16.1 17.7 0.00 0.00 0.00 35 1008.8
20260505031750 19 333 14.5 17.7 0.00 0.00 0.00 35 1008.7
20260505031246 20 332 14.5 20.9 0.00 0.00 0.00 34 1008.6
20260505030743 20 332 14.5 14.5 0.00 0.00 0.00 34 1008.5
20260505030240 20 343 16.1 17.7 0.00 0.00 0.00 32 1008.4
20260505025735 20 322 11.3 12.9 0.00 0.00 0.00 26 1008.2
20260505025234 21 330 14.5 16.1 0.00 0.00 0.00 26 1008.4
20260505024732 21 350 16.1 16.1 0.00 0.00 0.00 24 1008.1
20260505024229 21 357 14.5 16.1 0.00 0.00 0.00 25 1008.1
20260505023726 21 319 9.7 12.9 0.00 0.00 0.00 25 1007.8
20260505023223 22 335 12.9 20.9 0.00 0.00 0.00 25 1008.0
20260505022720 22 24 12.9 16.1 0.00 0.00 0.00 26 1007.9
20260505022217 22 286 8.0 11.3 0.00 0.00 0.00 27 1007.9
20260505021714 22 329 4.8 4.8 0.00 0.00 0.00 27 1007.8
20260505021211 22 351 9.7 11.3 0.00 0.00 0.00 26 1007.9
20260505020707 22 318 11.3 14.5 0.00 0.00 0.00 27 1007.8
20260505020202 23 352 9.7 11.3 0.00 0.00 0.00 27 1007.7
20260505015700 23 346 12.9 14.5 0.00 0.00 0.00 27 1007.7
20260505015157 23 335 14.5 17.7 0.00 0.00 0.00 26 1007.7
20260505014654 23 5 8.0 9.7 0.00 0.00 0.00 26 1007.8
20260505014150 23 310 8.0 9.7 0.00 0.00 0.00 26 1007.8
20260505013648 23 348 11.3 14.5 0.00 0.00 0.00 25 1007.6
20260505013145 22 16 11.3 12.9 0.00 0.00 0.00 26 1008.0
20260505012643 23 346 8.0 9.7 0.00 0.00 0.00 26 1008.0
20260505012140 23 346 9.7 11.3 0.00 0.00 0.00 26 1007.8
20260505011635 23 0 11.3 16.1 0.00 0.00 0.00 26 1007.7
20260505011128 24 353 27.4 33.8 0.00 0.00 0.00 24 1008.0
20260505010627 25 356 16.1 17.7 0.00 0.00 0.00 24 1007.8
20260505010124 24 349 9.7 9.7 0.00 0.00 0.00 24 1007.7
20260505005620 24 0 9.7 12.9 0.00 0.00 0.00 24 1008.1
20260505005118 25 331 16.1 22.5 0.00 0.00 0.00 24 1007.8
20260505004615 24 343 12.9 16.1 0.00 0.00 0.00 25 1007.9
20260505004112 25 79 9.7 12.9 0.00 0.00 0.00 23 1007.8
20260505003609 25 322 14.5 17.7 0.00 0.00 0.00 25 1007.7
20260505003106 25 355 9.7 11.3 0.00 0.00 0.00 23 1007.9
20260505002601 25 27 11.3 12.9 0.00 0.00 0.00 22 1007.9